Вернуться в каталог

COSMOS 1275 DEB

АктивенPO
NORAD 12773·DEBRIS·🇷🇺 Russia

Запущен Jun 4, 1981 с Plesetsk Cosmodrome

Loading…

Ближайшие Пролёты (ближайшие 24 часа)

TLE

СвежийSource: Space-Track

Эпоха: Sep 14, 2026, 21:44 UTC

1 12773U 81053DS  26257.90618470  .00020507  00000-0  27749-2 0  9999
2 12773  82.9180 227.9123 0068187 280.7376  78.6165 14.77259604290200

Отслеживайте COSMOS 1275 DEB в реальном времени с AllMySat

Download on the App Store